When you browse on this site, cookies collect data to enhance your experience and personalize the content and advertising you see.
Visit our Privacy Policy to learn more. By continuing to use the site, you agree to this use of cookies and data.
  • In Spain
  • List of Countries
  • For 7 days
  • Water Temperature
  • Weather Map
  • Weather Widgets
  • user-avatar
    Login

    Hourly Weather Naftalan

    Today, 10 April, Friday

    Time Temperature Precipitation Wind Pressure Humidity
    00:00 +8°C° 0 mm 1 mps 766 mmHg 76%
    01:00 +8°C° 0 mm 1 mps 765 mmHg 78%
    02:00 +7°C° 0 mm 0 mps 765 mmHg 80%
    03:00 +8°C° 0 mm 1 mps 764 mmHg 81%
    04:00 +8°C° 0 mm 1 mps 764 mmHg 80%
    05:00 +8°C° 0 mm 1 mps 764 mmHg 80%
    06:00 +8°C° 0 mm 1 mps 765 mmHg 79%
    07:00 +9°C° 0 mm 1 mps 764 mmHg 75%
    08:00 +10°C° 0 mm 1 mps 764 mmHg 71%
    09:00 +11°C° 0 mm 1 mps 764 mmHg 69%
    10:00 +12°C° 0 mm 1 mps 764 mmHg 69%
    11:00 +12°C° 0 mm 1 mps 764 mmHg 68%
    12:00 +12°C° 0 mm 2 mps 764 mmHg 67%
    13:00 +13°C° 0 mm 2 mps 763 mmHg 67%
    14:00 +13°C° 0 mm 2 mps 763 mmHg 67%
    15:00 +13°C° 0 mm 2 mps 762 mmHg 67%
    16:00 +12°C° 0 mm 2 mps 762 mmHg 69%
    17:00 +12°C° 0 mm 2 mps 763 mmHg 70%
    18:00 +11°C° 0 mm 3 mps 763 mmHg 72%
    19:00 +10°C° 0.2 mm 3 mps 763 mmHg 76%
    20:00 +9°C° 0.2 mm 2 mps 763 mmHg 80%
    21:00 +8°C° 0.2 mm 2 mps 763 mmHg 84%
    22:00 +9°C° 0 mm 2 mps 763 mmHg 82%
    23:00 +10°C° 0 mm 1 mps 763 mmHg 80%

    Tomorrow, 11 April, Saturday

    Time Temperature Precipitation Wind Pressure Humidity
    00:00 +9°C° 0 mm 0 mps 763 mmHg 79%
    01:00 +9°C° 0 mm 0 mps 762 mmHg 79%
    02:00 +9°C° 0 mm 0 mps 762 mmHg 79%
    03:00 +9°C° 0 mm 0 mps 762 mmHg 79%
    04:00 +9°C° 0 mm 0 mps 762 mmHg 79%
    05:00 +10°C° 0 mm 1 mps 762 mmHg 78%
    06:00 +10°C° 0 mm 1 mps 762 mmHg 78%
    07:00 +11°C° 0 mm 1 mps 762 mmHg 74%
    08:00 +12°C° 0 mm 1 mps 762 mmHg 69%
    09:00 +13°C° 0 mm 1 mps 762 mmHg 65%
    10:00 +14°C° 0 mm 1 mps 762 mmHg 61%
    11:00 +15°C° 0 mm 1 mps 762 mmHg 58%
    12:00 +16°C° 0 mm 1 mps 762 mmHg 55%
    13:00 +16°C° 0 mm 2 mps 762 mmHg 58%
    14:00 +14°C° 0 mm 3 mps 762 mmHg 60%
    15:00 +14°C° 0 mm 4 mps 761 mmHg 63%
    16:00 +13°C° 0 mm 4 mps 762 mmHg 67%
    17:00 +12°C° 0 mm 4 mps 762 mmHg 71%
    18:00 +12°C° 0 mm 4 mps 762 mmHg 75%
    19:00 +11°C° 0 mm 4 mps 762 mmHg 76%
    20:00 +11°C° 0 mm 4 mps 763 mmHg 78%
    21:00 +11°C° 0 mm 3 mps 763 mmHg 79%
    22:00 +10°C° 0 mm 3 mps 763 mmHg 81%
    23:00 +10°C° 0 mm 2 mps 763 mmHg 82%

    Day after tomorrow, 12 April, Sunday

    Time Temperature Precipitation Wind Pressure Humidity
    00:00 +10°C° 0 mm 2 mps 764 mmHg 83%
    01:00 +10°C° 0 mm 2 mps 764 mmHg 82%
    02:00 +10°C° 0 mm 2 mps 764 mmHg 80%
    03:00 +10°C° 0 mm 3 mps 764 mmHg 79%
    04:00 +10°C° 0 mm 3 mps 764 mmHg 76%
    05:00 +10°C° 0 mm 3 mps 764 mmHg 73%
    06:00 +10°C° 0 mm 4 mps 765 mmHg 70%
    07:00 +11°C° 0 mm 4 mps 765 mmHg 65%
    08:00 +13°C° 0 mm 4 mps 765 mmHg 61%
    09:00 +14°C° 0 mm 4 mps 765 mmHg 56%
    10:00 +15°C° 0 mm 4 mps 765 mmHg 53%
    11:00 +17°C° 0 mm 3 mps 765 mmHg 50%
    12:00 +18°C° 0 mm 2 mps 765 mmHg 47%
    13:00 +17°C° 0 mm 4 mps 765 mmHg 53%
    14:00 +15°C° 0 mm 5 mps 765 mmHg 58%
    15:00 +14°C° 0 mm 7 mps 765 mmHg 64%
    16:00 +14°C° 0 mm 7 mps 766 mmHg 67%
    17:00 +13°C° 0 mm 6 mps 766 mmHg 71%
    18:00 +11°C° 0 mm 6 mps 767 mmHg 74%
    19:00 +10°C° 0.1 mm 6 mps 767 mmHg 76%
    20:00 +10°C° 0.1 mm 7 mps 768 mmHg 78%
    21:00 +9°C° 0.1 mm 7 mps 769 mmHg 80%
    22:00 +9°C° 0 mm 8 mps 769 mmHg 77%
    23:00 +9°C° 0 mm 8 mps 770 mmHg 74%

    13 April, Monday

    Time Temperature Precipitation Wind Pressure Humidity
    00:00 +8°C° 0 mm 9 mps 770 mmHg 71%
    01:00 +9°C° 0.2 mm 8 mps 770 mmHg 73%
    02:00 +9°C° 0.2 mm 7 mps 770 mmHg 75%
    03:00 +9°C° 0.2 mm 6 mps 771 mmHg 77%
    04:00 +9°C° 0.5 mm 5 mps 771 mmHg 78%
    05:00 +9°C° 0.5 mm 5 mps 771 mmHg 79%
    06:00 +9°C° 0.5 mm 5 mps 772 mmHg 81%
    07:00 +9°C° 0.3 mm 6 mps 772 mmHg 76%
    08:00 +9°C° 0.3 mm 6 mps 773 mmHg 71%
    09:00 +9°C° 0.3 mm 7 mps 773 mmHg 67%
    10:00 +9°C° 0 mm 6 mps 773 mmHg 61%
    11:00 +10°C° 0 mm 6 mps 773 mmHg 55%
    12:00 +11°C° 0 mm 6 mps 773 mmHg 50%
    13:00 +12°C° 0 mm 5 mps 773 mmHg 50%
    14:00 +10°C° 0 mm 5 mps 772 mmHg 50%
    15:00 +11°C° 0 mm 4 mps 772 mmHg 50%
    16:00 +11°C° 0 mm 4 mps 772 mmHg 53%
    17:00 +11°C° 0 mm 4 mps 772 mmHg 57%
    18:00 +10°C° 0 mm 4 mps 771 mmHg 60%
    19:00 +10°C° 0 mm 4 mps 772 mmHg 63%
    20:00 +8°C° 0 mm 4 mps 772 mmHg 66%
    21:00 +9°C° 0 mm 3 mps 772 mmHg 68%
    22:00 +9°C° 0 mm 3 mps 772 mmHg 70%
    23:00 +9°C° 0 mm 3 mps 771 mmHg 72%

    14 April, Tuesday

    Time Temperature Precipitation Wind Pressure Humidity
    00:00 +8°C° 0 mm 3 mps 771 mmHg 73%
    01:00 +8°C° 0 mm 3 mps 771 mmHg 75%
    02:00 +8°C° 0 mm 3 mps 771 mmHg 77%
    03:00 +8°C° 0 mm 3 mps 770 mmHg 79%
    04:00 +9°C° 0 mm 3 mps 770 mmHg 79%
    05:00 +9°C° 0 mm 3 mps 770 mmHg 79%
    06:00 +9°C° 0 mm 3 mps 770 mmHg 79%
    07:00 +11°C° 0 mm 3 mps 770 mmHg 77%
    08:00 +12°C° 0 mm 3 mps 770 mmHg 74%
    09:00 +13°C° 0 mm 3 mps 770 mmHg 72%
    10:00 +13°C° 0 mm 4 mps 769 mmHg 69%
    11:00 +14°C° 0 mm 4 mps 768 mmHg 67%
    12:00 +14°C° 0 mm 4 mps 768 mmHg 64%
    13:00 +14°C° 0 mm 4 mps 767 mmHg 64%
    14:00 +14°C° 0 mm 5 mps 767 mmHg 65%
    15:00 +14°C° 0 mm 5 mps 767 mmHg 65%
    16:00 +13°C° 0 mm 5 mps 766 mmHg 68%
    17:00 +13°C° 0 mm 5 mps 766 mmHg 71%
    18:00 +12°C° 0 mm 5 mps 766 mmHg 75%
    19:00 +10°C° 0 mm 5 mps 766 mmHg 77%
    20:00 +11°C° 0 mm 4 mps 766 mmHg 80%
    21:00 +10°C° 0 mm 4 mps 766 mmHg 83%
    22:00 +10°C° 0 mm 4 mps 766 mmHg 84%
    23:00 +10°C° 0 mm 4 mps 766 mmHg 85%

    15 April, Wednesday

    Time Temperature Precipitation Wind Pressure Humidity
    00:00 +10°C° 0 mm 4 mps 765 mmHg 86%
    01:00 +10°C° 0 mm 3 mps 765 mmHg 87%
    02:00 +10°C° 0 mm 3 mps 764 mmHg 87%
    03:00 +10°C° 0 mm 3 mps 764 mmHg 88%
    04:00 +10°C° 0 mm 3 mps 764 mmHg 88%
    05:00 +10°C° 0 mm 2 mps 764 mmHg 87%
    06:00 +10°C° 0 mm 2 mps 763 mmHg 87%
    07:00 +13°C° 0 mm 2 mps 763 mmHg 80%
    08:00 +14°C° 0 mm 2 mps 763 mmHg 73%
    09:00 +16°C° 0 mm 2 mps 763 mmHg 67%
    10:00 +16°C° 0 mm 3 mps 762 mmHg 64%
    11:00 +17°C° 0 mm 3 mps 762 mmHg 62%
    12:00 +18°C° 0 mm 4 mps 762 mmHg 59%
    13:00 +18°C° 0 mm 4 mps 761 mmHg 61%
    14:00 +17°C° 0 mm 4 mps 761 mmHg 62%
    15:00 +16°C° 0 mm 5 mps 760 mmHg 64%
    16:00 +15°C° 0 mm 5 mps 760 mmHg 69%
    17:00 +14°C° 0 mm 5 mps 760 mmHg 74%
    18:00 +13°C° 0 mm 5 mps 760 mmHg 79%
    19:00 +13°C° 0 mm 4 mps 760 mmHg 82%
    20:00 +12°C° 0 mm 4 mps 760 mmHg 85%
    21:00 +12°C° 0 mm 3 mps 760 mmHg 88%
    22:00 +12°C° 0 mm 2 mps 760 mmHg 89%
    23:00 +12°C° 0 mm 2 mps 760 mmHg 89%
    Show more